Regional Weather Roundup
Issued by NWS Sterling, VA

Home | Current Version | Previous Version | Graphics & Text | Print | Product List | Glossary On
Versions: 1 2 3 4 5 6 7 8 9 10 11 12 13 14 15 16 17 18 19 20 21 22 23 24 25 26 27
000
ASUS41 KLWX 231711
RWRLWX

REGIONAL WEATHER ROUNDUP
NATIONAL WEATHER SERVICE BALTIMORE MD/WASHINGTON DC
100 PM EDT SUN APR 23 2017

Note: "FAIR" indicates few or no clouds below 12,000 feet
with no significant weather and/or obstructions to visibility.
 TC=TEMPERATURE CELSIUS

 * =Non NWS site. Station does not report precipitation (e.g. rain,
    snow, etc.), thunder, or fog.

DCZ001-MDZ009-015-VAZ040>042-051-053>054-231800-
WASHINGTON METRO

CITY           SKY/WX    TMP DP  RH WIND       PRES   REMARKS
WASHINGTON NAT CLOUDY    57  43  59 E5        30.15F
DULLES         PTSUNNY   57  41  55 VRB3      30.13F
ANDREWS AFB    PTSUNNY   55  42  61 CALM      30.13F
FT BELVOIR     CLOUDY    56  42  59 NE3       30.14F
QUANTICO       CLOUDY    57  45  64 NE6       30.14F
COLLEGE PARK*  PTSUNNY   56  42  57 SE5       30.14F
LEESBURG*      PTSUNNY   59  43  55 SE7       30.14F
MANASSAS*        N/A     55  40  56 CALM      30.15F

$$

MDZ006>007-011-014-231800-
BALTIMORE METRO

CITY           SKY/WX    TMP DP  RH WIND       PRES   REMARKS
BWI AIRPORT    PTSUNNY   58  42  55 VRB5G22   30.14R
MD SCIENCE CTR   N/A     60  39  45 MISG      30.14S
MARTIN STATE   MOSUNNY   59  45  58 SE7       30.15F
ANNAPOLIS      CLOUDY    58  43  57 CALM      30.14S
FORT MEADE*    MOSUNNY   55  39  54 E7        30.16

$$

MDZ012-015-019>023-231800-
MARYLAND EASTERN SHORE

CITY           SKY/WX    TMP DP  RH WIND       PRES   REMARKS
OCEAN CITY     CLOUDY    56  47  71 E12       30.12F
SALISBURY      MOSUNNY   58  46  64 NE8       30.12S
BAY BRIDGE AP* CLOUDY    57  45  62 NW8       30.14S
CAMBRIDGE*     PTSUNNY   59  45  58 VRB5      30.14R
EASTON*        PTSUNNY   59  43  55 NE6       30.17R

$$

MDZ017>025-231800-
SOUTHERN MARYLAND

CITY           SKY/WX    TMP DP  RH WIND       PRES   REMARKS
PATUXENT RIVER CLOUDY    56  48  74 VRB5      30.13S
ST INIGOES     PTSUNNY   56  45  66 VRB6      30.12F
LEONARDTOWN*   CLOUDY    55  41  58 NE6       30.14F

$$

MDZ003>005-231800-
NORTH CENTRAL MARYLAND

CITY           SKY/WX    TMP DP  RH WIND       PRES   REMARKS
FREDERICK*     MOSUNNY   61  46  59 N7        30.16F
HAGERSTOWN APT MOSUNNY   61  40  45 CALM      30.13S
WESTMINSTER*   MOSUNNY   61  43  51 NW5       30.12F

$$

MDZ501>502-231800-
WESTERN MARYLAND

CITY           SKY/WX    TMP DP  RH WIND       PRES   REMARKS
OAKLAND*         N/A     52  36  54 E9        30.08F
CUMBERLAND*    CLOUDY    59  39  47 SW5       30.16F

$$

VAZ025>031-231800-
SHENANDOAH VALLEY

CITY           SKY/WX    TMP DP  RH WIND       PRES   REMARKS
WINCHESTER*    MOSUNNY   54  37  54 CALM      30.13F
FRONT ROYAL*   CLOUDY    55  43  62 NE7       30.12F
LURAY*         CLOUDY    55  43  62 NE6       30.12F
NEW MARKET*    CLOUDY    55  39  54 NE5       30.11F
STAUNTON*      CLOUDY    51  42  70 NE8       30.12F
WAYNESBORO*    MOSUNNY   51  42  72 N5        30.10F

$$

WVZ021-048>050-054>055-231800-
EASTERN WEST VIRGINIA PANHANDLE

CITY           SKY/WX    TMP DP  RH WIND       PRES   REMARKS
MARTINSBURG    MOSUNNY   58  39  49 MISG      30.12F
PETERSBURG*    MOSUNNY   58  41  53 NE3       30.11F

$$

VAZ036>039-050-231800-
CENTRAL FOOTHILLS

CITY           SKY/WX    TMP DP  RH WIND       PRES   REMARKS
CHARLOTTESVILL MOSUNNY   56  39  53 NE13      30.11F
CULPEPER*      CLOUDY    56  42  60 NE6       30.14F
ORANGE*        CLOUDY    52  41  66 CALM      30.13F
GORDONSVILLE*  CLOUDY    54  41  62 NE7       30.12F
WARRENTON*     MOSUNNY   56  39  52 N8        30.13F

$$

VAZ055>057-231800-
NORTH AND CENTRAL PIEDMONT

CITY           SKY/WX    TMP DP  RH WIND       PRES   REMARKS
FREDERICKSBRG* CLOUDY    57  44  62 E8        30.12F
STAFFORD*      CLOUDY    55  44  66 NE7       30.17F

$$

NCZ024-NYZ072-PAZ021-071-VAZ022-071-231800-
OTHER REGIONAL OBSERVATIONS

CITY           SKY/WX    TMP DP  RH WIND       PRES   REMARKS
NEW YORK CITY  SUNNY     61  35  37 CALM      30.15S
PHILADELPHIA   PTSUNNY   61  40  45 VRB3      30.14S
PITTSBURGH     CLOUDY    61  33  35 SE6       30.09F
ROANOKE        LGT RAIN  50  44  80 SE9       30.10S
RICHMOND       CLOUDY    56  47  71 NE12      30.11F
RALEIGH        LGT RAIN  54  52  93 NE12      30.02F

$$

ANZ530>537-231800-
MARINE OBSERVATIONS

STATION/POSITION TIME  TEMP    WIND        PRES
                       AIR SEA DIR/SP/G
                 (UTC) (F)     (DEG/KT/KT) (MB)
THOMAS PT LIGHT  1700   53 58  360/  5/  6   N/A
BALT KEY BRIDGE  1648   54     140/  9/ 10 1020.6F
COVE POINT       1648   54     350/  3/  5 1021.2R
LEWISETTA        1648   54 62   70/  5/  6 1019.8F
SOLOMONS ISLAND  1642   54 61  120/  4/  5   N/A
PINEY POINT      1648           80/  4/  5   N/A

$$





USA.gov is the U.S. government's official web portal to all federal, state and local government web resources and services.